Location: Buckeye Ditch
(40.9104°N, 122.9517°W)
Time: 18:58:34
(UTC+00:00)

SL-16 R/B - Visible Passes

Search period start: 11 December 2025 00:00
Search period end: 21 December 2025 00:00
Orbit: 840 x 847 km, 71.0° (Epoch: 11 December)

Date Brightness Start Highest point End Pass type
(mag) Time Alt. Az. Time Alt. Az. Time Alt. Az.
14 Dec 4.5 14:58:30 10° NNE 15:01:23 14° NE 15:04:16 10° ENE visible
15 Dec 4.6 14:44:09 10° NNE 14:46:53 13° NE 14:49:36 10° ENE visible
16 Dec 4.6 14:29:49 10° NNE 14:32:23 13° NE 14:34:55 10° ENE visible
17 Dec 4.6 14:15:30 10° NNE 14:17:52 13° NE 14:20:13 10° ENE visible
18 Dec 4.7 14:01:12 10° NNE 14:03:21 12° NE 14:05:30 10° ENE visible
19 Dec 4.7 13:46:56 10° NNE 13:48:50 12° NE 13:50:45 10° ENE visible
20 Dec 4.8 13:32:42 10° NNE 13:34:19 11° NE 13:35:58 10° ENE visible
